(207058) = 2004 XP74

Discovered at Socorro on 2004-12-08 by LINEAR.

Orbit

Orbit type: Main Belt

Note: WebGL enabled browser required.

epoch2022-08-09.0
epoch JD2459800.5
perihelion date2021-07-07.68928
perihelion JD2459403.18928
argument of perihelion (°)151.64297
ascending node (°)294.90425
inclination (°)14.94954
eccentricity0.1834881
perihelion distance (AU)2.1192212
Tisserand w.r.t. Jupiter3.3
ΔV w.r.t. Earth (km/sec)10.2
semimajor axis (AU)2.5954568
mean anomaly (°)93.65122
mean daily motion (°/day)0.23571280
aphelion distance (AU)3.072
period (years)4.18
P-vector [x]0.04564496
P-vector [y]0.86086768
P-vector [z]0.50677745
Q-vector [x]-0.97116924
Q-vector [y]0.15706464
Q-vector [z]-0.17933492
absolute magnitude16.19
phase slope0.15
uncertainty0
referenceMPO 721411
observations used411
oppositions9
arc length (days)7828
first opposition used2000
last opposition used2022
residual rms (arc-secs)0.76
perturbers coarse indicatorM-v
perturbers precise indicator003El
first observation date used2000-12-23.0
last observation date used2022-05-30.0
computer namePan
JD of orbit computation2456406.149358
perihelion JD uncertainty (days)2.1508E-04
argument of perihelion uncertainty (°)8.4104E-05
ascending node uncertainty (°)1.8654E-05
inclination uncertainty (°)9.8324E-06
eccentricity uncertainty 1.7678E-07
perihelion distance uncertainty (AU)4.9676E-07
Minimum Orbit Intersection Distances (in AU)
for orbit epoch: 2459800.5, reference: E2022-U13
Mercury1.8107
Venus1.40499
Earth1.14762
Mars0.5298
Jupiter2.14479
Saturn6.95177
Uranus15.9259
Neptune27.2475

Observations

419 total observations over interval: 2000 12 23.456430 – 2022 05 30.165858
These data are available for download (format description).

Date (UT) J2000 RA J2000 Dec Magn Location Ref
2000 12 23.456430 10 25 16.307 +02 54 36.18 20.55 V 645 – Apache Point-Sloan Digital Sky Survey MPS 125465
2000 12 23.459902 10 25 16.332 +02 54 34.02 21.54   645 – Apache Point-Sloan Digital Sky Survey MPS 125465
2001 02 22.33682 09 44 51.89 -02 37 54.5 19.0   704 – Lincoln Laboratory ETS, New Mexico MPS 125465
2001 02 22.35085 09 44 51.00 -02 37 54.2 19.0   704 – Lincoln Laboratory ETS, New Mexico MPS 125465
2001 02 22.36604 09 44 49.93 -02 37 54.4 18.8   704 – Lincoln Laboratory ETS, New Mexico MPS 125465
2001 03 15.17111 09 27 18.98 -02 06 11.8 19.2 R 699 – Lowell Observatory-LONEOS MPS 125465
2001 03 15.19926 09 27 17.95 -02 06 08.6   699 – Lowell Observatory-LONEOS MPS 125465
2001 03 15.22759 09 27 16.97 -02 06 05.4   699 – Lowell Observatory-LONEOS MPS 125465
2001 03 15.25567 09 27 15.89 -02 06 00.0   699 – Lowell Observatory-LONEOS MPS 125465
2001 03 19.180800 09 25 13.920 -01 57 15.38 20.16 V 645 – Apache Point-Sloan Digital Sky Survey MPS 125465
2001 03 19.184272 09 25 13.824 -01 57 14.83 20.95   645 – Apache Point-Sloan Digital Sky Survey MPS 125465
2003 10 23.09002 21 14 04.90 -01 44 03.1 21.6 V 291 – LPL/Spacewatch II MPS 125465
2003 10 23.11542 21 14 05.33 -01 44 03.3 21.2 V 291 – LPL/Spacewatch II MPS 125465
2003 10 23.13857 21 14 05.75 -01 44 03.8 20.9 V 291 – LPL/Spacewatch II MPS 125465
2004 12 08.46134 08 46 04.25 +21 24 38.7 18.6   704 – Lincoln Laboratory ETS, New Mexico MPS 122765
2004 12 08.47757 08 46 04.13 +21 24 32.2 19.2   704 – Lincoln Laboratory ETS, New Mexico MPS 122765
2004 12 08.49274 08 46 04.00 +21 24 26.1 19.2   704 – Lincoln Laboratory ETS, New Mexico MPS 122765
2004 12 08.50917 08 46 03.87 +21 24 19.5 20.0   704 – Lincoln Laboratory ETS, New Mexico MPS 122765
2004 12 12.402887 08 45 24.101 +20 59 06.03 20.05 V 645 – Apache Point-Sloan Digital Sky Survey MPS 390269
2004 12 12.406359 08 45 24.041 +20 59 04.74 21.11   645 – Apache Point-Sloan Digital Sky Survey MPS 390269
2004 12 13.36656 08 45 08.92 +20 52 56.4 19.1 R 699 – Lowell Observatory-LONEOS MPS 122765
2004 12 13.37805 08 45 08.81 +20 52 52.6   699 – Lowell Observatory-LONEOS MPS 122765
2004 12 13.38954 08 45 08.45 +20 52 48.2   699 – Lowell Observatory-LONEOS MPS 122765
2004 12 13.40106 08 45 08.23 +20 52 43.7   699 – Lowell Observatory-LONEOS MPS 122765
2004 12 14.33390 08 44 51.39 +20 46 46.5 19.2   704 – Lincoln Laboratory ETS, New Mexico MPS 122765
2004 12 14.34690 08 44 51.22 +20 46 42.8 19.8   704 – Lincoln Laboratory ETS, New Mexico MPS 122765
2004 12 14.37341 08 44 50.53 +20 46 32.7 19.8   704 – Lincoln Laboratory ETS, New Mexico MPS 122765
2004 12 14.38640 08 44 50.30 +20 46 27.2 19.6   704 – Lincoln Laboratory ETS, New Mexico MPS 122765
2005 01 06.34977 08 28 13.96 +18 28 46.4 18.6   704 – Lincoln Laboratory ETS, New Mexico MPS 124120
2005 01 06.36302 08 28 13.11 +18 28 40.6 19.5   704 – Lincoln Laboratory ETS, New Mexico MPS 124120
2005 01 06.37790 08 28 12.06 +18 28 35.6 19.3   704 – Lincoln Laboratory ETS, New Mexico MPS 124120
2005 01 06.39132 08 28 11.21 +18 28 32.0 19.3   704 – Lincoln Laboratory ETS, New Mexico MPS 124120
2005 01 06.40457 08 28 10.27 +18 28 26.9 19.5   704 – Lincoln Laboratory ETS, New Mexico MPS 124120
2005 01 11.30559 08 22 45.05 +18 00 39.5 19.4   704 – Lincoln Laboratory ETS, New Mexico MPS 124120
2005 01 11.31886 08 22 44.14 +18 00 34.1 19.3   704 – Lincoln Laboratory ETS, New Mexico MPS 124120
2005 01 11.33209 08 22 43.19 +18 00 30.6 18.9   704 – Lincoln Laboratory ETS, New Mexico MPS 124120
2005 01 11.34615 08 22 42.21 +18 00 25.4 18.8   704 – Lincoln Laboratory ETS, New Mexico MPS 124120
2005 01 13.24925 08 20 30.22 +17 49 45.1 19.4 V 691 – Steward Observatory, Kitt Peak-Spacewatch MPS 124120
2005 01 13.27481 08 20 28.36 +17 49 36.5 18.9 V 691 – Steward Observatory, Kitt Peak-Spacewatch MPS 124120
2005 01 13.30064 08 20 26.49 +17 49 27.9 18.8 V 691 – Steward Observatory, Kitt Peak-Spacewatch MPS 124120
2005 01 15.34751 08 18 01.73 +17 38 03.7 18.2   704 – Lincoln Laboratory ETS, New Mexico MPS 124769
2005 01 15.36115 08 18 00.68 +17 37 59.2 18.6   704 – Lincoln Laboratory ETS, New Mexico MPS 124769
2005 01 15.37525 08 17 59.63 +17 37 54.2 18.4   704 – Lincoln Laboratory ETS, New Mexico MPS 124769
2005 01 15.38844 08 17 58.69 +17 37 49.8 18.4   704 – Lincoln Laboratory ETS, New Mexico MPS 124769
2005 01 15.40169 08 17 57.68 +17 37 45.8 19.1   704 – Lincoln Laboratory ETS, New Mexico MPS 124769
2005 01 17.35230 08 15 38.55 +17 26 57.9 19.1   704 – Lincoln Laboratory ETS, New Mexico MPS 124769
2005 01 17.36596 08 15 37.54 +17 26 53.6 19.4   704 – Lincoln Laboratory ETS, New Mexico MPS 124769
2005 01 17.37952 08 15 36.52 +17 26 49.4 18.8   704 – Lincoln Laboratory ETS, New Mexico MPS 124769
2005 01 17.39306 08 15 35.53 +17 26 44.3 18.9   704 – Lincoln Laboratory ETS, New Mexico MPS 124769
2005 01 17.40645 08 15 34.52 +17 26 40.0 18.8   704 – Lincoln Laboratory ETS, New Mexico MPS 124769
2005 01 19.25911 08 13 22.14 +17 16 28.6 18.5 V 691 – Steward Observatory, Kitt Peak-Spacewatch MPS 124769
2005 01 19.28474 08 13 20.24 +17 16 20.2 18.8 V 691 – Steward Observatory, Kitt Peak-Spacewatch MPS 124769
2005 01 19.31383 08 13 18.07 +17 16 10.7 18.8 V 691 – Steward Observatory, Kitt Peak-Spacewatch MPS 124769
2005 02 01.24415 07 58 31.43 +16 07 23.4 18.1 R 703 – Catalina Sky Survey MPS 125742
2005 02 01.25118 07 58 30.95 +16 07 21.5 18.3 R 703 – Catalina Sky Survey MPS 125742
2005 02 01.25822 07 58 30.49 +16 07 19.0 18.2 R 703 – Catalina Sky Survey MPS 125742
2005 02 01.26523 07 58 30.00 +16 07 17.5 18.2 R 703 – Catalina Sky Survey MPS 125742
2005 02 02.28878 07 57 26.50 +16 02 00.5 19.4   704 – Lincoln Laboratory ETS, New Mexico MPS 125742
2005 02 02.30237 07 57 25.42 +16 01 58.1 18.5   704 – Lincoln Laboratory ETS, New Mexico MPS 125742
2005 02 02.31572 07 57 24.64 +16 01 55.0 19.2   704 – Lincoln Laboratory ETS, New Mexico MPS 125742
2005 02 02.32916 07 57 23.76 +16 01 49.6 19.4   704 – Lincoln Laboratory ETS, New Mexico MPS 125742
2008 11 22.04527 06 18 54.00 +38 46 43.6 18.6 R 106 – Crni Vrh MPS 266443
2008 11 22.05421 06 18 53.55 +38 46 42.6 19.0 R 106 – Crni Vrh MPS 266443
2008 11 22.06310 06 18 53.23 +38 46 41.7 18.9 R 106 – Crni Vrh MPS 266443
2008 11 22.07196 06 18 52.76 +38 46 41.1 19.1 R 106 – Crni Vrh MPS 266443
2008 11 22.38392 06 18 41.70 +38 45 57.4 19.3   704 – Lincoln Laboratory ETS, New Mexico MPS 266443
2008 11 22.39648 06 18 41.19 +38 45 55.7 19.4   704 – Lincoln Laboratory ETS, New Mexico MPS 266443
2008 11 22.40906 06 18 40.67 +38 45 53.5 19.3   704 – Lincoln Laboratory ETS, New Mexico MPS 266443
2008 11 22.42150 06 18 40.15 +38 45 52.2 19.4   704 – Lincoln Laboratory ETS, New Mexico MPS 266443
2008 11 22.43402 06 18 39.75 +38 45 51.4 19.3   704 – Lincoln Laboratory ETS, New Mexico MPS 266443
2008 11 23.44630 06 18 01.15 +38 43 16.6 19.1 V 703 – Catalina Sky Survey MPS 266443
2008 11 23.45111 06 18 01.00 +38 43 16.5 19.2 V 703 – Catalina Sky Survey MPS 266443
2008 11 23.45594 06 18 00.79 +38 43 15.2 19.1 V 703 – Catalina Sky Survey MPS 266443
2008 11 23.46073 06 18 00.54 +38 43 14.5 19.5 V 703 – Catalina Sky Survey MPS 266443
2008 11 23.46563 06 18 00.32 +38 43 14.2 18.9 V 703 – Catalina Sky Survey MPS 266443
2008 12 04.25508 06 08 46.67 +38 02 12.6 19.0   704 – Lincoln Laboratory ETS, New Mexico MPS 267515
2008 12 04.26780 06 08 45.83 +38 02 08.7 19.0   704 – Lincoln Laboratory ETS, New Mexico MPS 267515
2008 12 04.28057 06 08 45.13 +38 02 06.0 19.9   704 – Lincoln Laboratory ETS, New Mexico MPS 267515
2008 12 04.29314 06 08 44.14 +38 02 01.8 19.4   704 – Lincoln Laboratory ETS, New Mexico MPS 267515
2008 12 04.30588 06 08 43.35 +38 01 57.8 19.5   704 – Lincoln Laboratory ETS, New Mexico MPS 267515
2009 01 30.20640 05 22 33.31 +28 36 52.6 19.0   704 – Lincoln Laboratory ETS, New Mexico MPS 272523
2009 01 30.21875 05 22 33.32 +28 36 45.5 19.4   704 – Lincoln Laboratory ETS, New Mexico MPS 272523
2009 01 30.23131 05 22 33.40 +28 36 37.3 19.6   704 – Lincoln Laboratory ETS, New Mexico MPS 272523
2009 01 30.24353 05 22 33.39 +28 36 29.9 19.7   704 – Lincoln Laboratory ETS, New Mexico MPS 272523
2009 01 30.25578 05 22 33.47 +28 36 22.2 19.8   704 – Lincoln Laboratory ETS, New Mexico MPS 272523
